Showing default

EAGLEEYE, 60508

Orbit data source: Space-Track

EAGLEEYE, 60508 is a Polish payload satellite in SSO that was launched on Fri, 16 Aug 2024 UTC via an FALCON 9 launch vehicle from the Air Force Western Test Range (AFWTR). Payload-class satellites include a variety of spacecraft equipped with specific instruments for various scientific and technological missions. These include communications satellites like Starlink; space stations such as the ISS; scientific satellites like the Hubble; Earth observation satellites from companies like Planet Labs, Umbra, and HawkEye 360; GPS; miniature CubeSats for education and research; and military/defense satellites.

Loading next visibility...
Identifier
60508, 2024-149AS
Orbit
SSO
Country
Flag of PLPL / POL
Related business
Manufacturer
CREO
Mission
Operational Commercial Imaging
Bus & Motor
HYPERSAT, Unknown motor
Mass
55 kg wet, 55 kg dry
Launch date (UTC)
2024-08-16 (1 year ago)
Launch vehicle
FALCON 9
Launch site
Air Force Western Test Range (AFWTR)
Object type
Payload
Rocket body
Debris
Shape & HBR
Box + 2 Pan, 0.8 m
Radar Cross Section
0.714 m², Medium (>0.1 m² and < 1m²)

Expand to show TLE details & history
Last TLE update: 1 day ago

TLE from 1 day ago
0 EAGLEEYE
1 60508U 24149AS  25287.19812089  .00038429  00000-0  92600-3 0  9997
2 60508  97.3979   7.8664 0004407  83.0439 277.1309 15.41141566 64720
Epoch: 2025-10-14T04:45Z
TLE epoch observation values (Epoch: 2025-10-14T04:45:17.644Z)
Latitude
-0.00003°
Longitude
-86.44711°
Altitude
445.486 km
Speed
7.645 km/s
True Right ascension
00h 31m 27s
True Declination
0° 00' 00"
Sunlit
Object was in full shadow at epoch
Visualization orbit readout
Latitude
Unknown
Longitude
Unknown
Altitude
Unknown
Speed
Unknown
Apparent Right ascension
Unknown
Apparent Declination
Unknown
Sunlit
N/A
Visualization observer readout
Local Sidereal Time
09:07:39
Azimuth
Unknown
Elevation
Unknown
Doppler factor
Unknown
Orbital elements
Apogee altitude
442.681 km
Perigee altitude
436.672 km
Semi-major axis
6,817.813 km
Eccentricity
0.00044
Inclination
97.3979°
RAAN
7.8664°
Arg. of periapsis
83.0439°
True anomaly
277.08079°
Mean anomaly
277.1309°
Eccentric anomaly
277.10584°
Mean motion
3.85545 °/min
Orbital period
93.37 mins
BSTAR
0.000926
Loading maneuver chart data...
Computing Atmospheric mass density...
Loading historical data...
Loading historical data...
Loading historical data...
Loading historical data...
Loading historical data...
Loading historical data...
Loading historical data...

Documentation

Showing up to 5 results
|